Weather History for KFUL - September, 2012

Change the Weather History Date:

Wednesday, September 26, 2012

  Actual Average Record
Temperature  
Mean Temperature 75 °F 72 °F  
Max Temperature 84 °F 82 °F 107 °F (2010)
Min Temperature 65 °F 62 °F 56 °F (2005)
Degree Days  
Heating Degree Days 0 0  
Month to date heating degree days 0 0  
Since 1 July heating degree days 16 0  
Cooling Degree Days 10 7  
Month to date cooling degree days 413 230  
Year to date cooling degree days 1680 1093  
Growing Degree Days 23 (Base 50)    
Moisture  
Dew Point 59 °F    
Average Humidity 61    
Maximum Humidity 78    
Minimum Humidity 43    
Precipitation  
Precipitation 0.00 in 0.01 in 0.00 in ()
Month to date precipitation T 0.18  
Year to date precipitation 3.54 9.92  
Since 1 July precipitation 0.01 0.27  
Snow  
Snow 0.00 in - - ()
Month to date snowfall 0.0  
Year to date snowfall 0.0  
Since 1 July snowfall 0.0  
Snow Depth -    
Sea Level Pressure  
Sea Level Pressure 29.85 in    
Wind  
Wind Speed 2 mph (WSW)    
Max Wind Speed 13 mph    
Max Gust Speed 17 mph    
Visibility 10 miles    
Events      
T = Trace of Precipitation, MM = Missing Value Source: NWS Daily Summary

Daily Weather History Graph

Daily Weather History Graph

Search for Another Location

Airport or City:

Trip Planner

Search our weather history database for the weather conditions in past years. The results will help you decide how hot, cold, wet, or windy it might be!

Date:

Astronomy

Sep. 26, 2012 Rise Set
Actual Time 6:43 AM PDT 6:42 PM PDT
Civil Twilight 6:18 AM PDT 7:07 PM PDT
Nautical Twilight 5:49 AM PDT 7:36 PM PDT
Astronomical Twilight 5:20 AM PDT 8:05 PM PDT
Moon 4:38 PM PDT (9/26) 3:22 AM PDT (9/26)
Length of Visible Light 12h 48m
Length of Day
11h 59m
Waxing Gibbous, 88% of the Moon is Illuminated
Sep 26
Waxing Gibbous
Sep 29
Full
Oct 8
Last Quarter
Oct 15
New
Oct 21
First Quarter

Hourly Weather History & Observations

Time (PDT) Temp. Heat Index Dew Point Humidity Pressure Visibility Wind Dir Wind Speed Gust Speed Precip Events Conditions
12:53 AM 66.9 °F - 59.0 °F 76% 29.88 in 10.0 mi Calm Calm - N/A   Clear
1:53 AM 66.9 °F - 59.0 °F 76% 29.88 in 10.0 mi Calm Calm - N/A   Clear
2:53 AM 66.0 °F - 59.0 °F 78% 29.87 in 10.0 mi Calm Calm - N/A   Clear
3:53 AM 64.9 °F - 57.9 °F 78% 29.86 in 10.0 mi Calm Calm - N/A   Clear
4:34 AM 64.4 °F - 57.2 °F 77% 29.86 in 10.0 mi Calm Calm - N/A   Mostly Cloudy
4:53 AM 66.0 °F - 59.0 °F 78% 29.86 in 10.0 mi Calm Calm - N/A   Overcast
5:53 AM 66.0 °F - 59.0 °F 78% 29.87 in 10.0 mi Calm Calm - N/A   Mostly Cloudy
6:00 AM 66.2 °F - 59.0 °F 78% 29.87 in 10.0 mi Calm Calm - N/A   Mostly Cloudy
6:09 AM 66.2 °F - 59.0 °F 78% 29.87 in 10.0 mi Calm Calm - N/A   Mostly Cloudy
6:53 AM 66.9 °F - 59.0 °F 76% 29.88 in 10.0 mi Calm Calm - N/A   Overcast
7:53 AM 66.9 °F - 59.0 °F 76% 29.88 in 9.0 mi Calm Calm - N/A   Overcast
8:53 AM 68.0 °F - 59.0 °F 73% 29.89 in 8.0 mi SW 3.5 mph - N/A   Overcast
9:33 AM 69.8 °F - 59.0 °F 68% 29.89 in - Calm Calm - N/A   Unknown
9:53 AM 70.0 °F - 59.0 °F 68% 29.88 in 6.0 mi Calm Calm - N/A   Haze
10:53 AM 73.0 °F - 59.0 °F 61% 29.87 in 7.0 mi NW 3.5 mph - N/A   Unknown
11:53 AM 78.1 °F - 59.0 °F 52% 29.85 in 9.0 mi Calm Calm - N/A   Clear
12:53 PM 82.0 °F 82.0 °F 57.9 °F 44% 29.83 in 8.0 mi Variable 4.6 mph - N/A   Clear
1:53 PM 82.9 °F 82.8 °F 59.0 °F 44% 29.80 in 9.0 mi SSW 6.9 mph - N/A   Clear
2:53 PM 81.0 °F 81.6 °F 60.1 °F 49% 29.81 in 10.0 mi SSW 9.2 mph - N/A   Clear
3:53 PM 81.0 °F 81.3 °F 59.0 °F 47% 29.80 in 10.0 mi SW 5.8 mph - N/A   Clear
4:53 PM 80.1 °F 80.7 °F 59.0 °F 48% 29.80 in 10.0 mi WNW 5.8 mph - N/A   Clear
5:53 PM 77.0 °F - 59.0 °F 54% 29.81 in 10.0 mi Variable 3.5 mph - N/A   Clear
6:53 PM 73.9 °F - 59.0 °F 59% 29.82 in 10.0 mi WNW 5.8 mph - N/A   Clear
7:53 PM 73.0 °F - 59.0 °F 61% 29.83 in 10.0 mi Calm Calm - N/A   Clear
8:53 PM 72.0 °F - 59.0 °F 64% 29.85 in 10.0 mi Calm Calm - N/A   Clear
9:53 PM 71.1 °F - 59.0 °F 66% 29.87 in 10.0 mi Calm Calm - N/A   Clear
10:53 PM 70.0 °F - 60.1 °F 71% 29.87 in 10.0 mi Calm Calm - N/A   Clear
11:53 PM 69.1 °F - 60.1 °F 73% 29.87 in 10.0 mi Calm Calm - N/A   Clear